DELTA 1 DEB, 19834

Orbit data source: Space-Track

DELTA 1 DEB, 19834 is space debris in SSO originally from a launch on Sun, 23 Jul 1972 UTC launched from the Air Force Western Test Range (AFWTR). Debris objects in space refer to the collection of defunct objects orbiting the Earth. Examples of debris include non-operational satellites, rocket bodies, and fragments generated from explosions, collisions, or faulty payload assembly.

Loading next visibility...
Identifier
19834, 1972-058JM
Orbit
SSO
Country
Flag of USUS
Related business
Manufacturer
Unknown
Mission
Spacecraft
Bus & Motor
Unknown
Mass
Unknown
Launch date (UTC)
1972-07-23 (54 years ago)
Launch vehicle
Unknown
Launch site
Air Force Western Test Range (AFWTR)
Object type
Payload
Rocket body
Debris
Shape & HBR
Unknown shape, 0.1 m
Radar Cross Section
Small (<0.1 m²)

Expand to show TLE details & history
Last TLE update: 9 hours ago

TLE from 9 hours ago
0 DELTA 1 DEB
1 19834U 72058JM  26121.21293646  .00001560  00000-0  28064-3 0  9997
2 19834  98.5991 265.3292 0126385 195.3012 164.4353 14.63141408933163
Epoch: 2026-05-01T05:06Z
TLE epoch observation values (Epoch: 2026-05-01T05:06:37.710Z)
Latitude
0.00005°
Longitude
-30.47636°
Altitude
772.094 km
Speed
7.422 km/s
True Right ascension
17h 41m 19s
True Declination
0° 00' 00"
Sunlit
Object was in full shadow at epoch
Visualization orbit readout
Latitude
Unknown
Longitude
Unknown
Altitude
Unknown
Speed
Unknown
Apparent Right ascension
Unknown
Apparent Declination
Unknown
Sunlit
N/A
Visualization observer readout
Local Sidereal Time
21:46:57
Azimuth
Unknown
Elevation
Unknown
Doppler factor
Unknown
Orbital elements
Apogee altitude
769.35 km
Perigee altitude
590.938 km
Semi-major axis
7,058.281 km
Eccentricity
0.01264
Inclination
98.5991°
RAAN
265.3292°
Arg. of periapsis
195.3012°
True anomaly
164.81808°
Mean anomaly
164.4353°
Eccentric anomaly
164.62727°
Mean motion
3.66012 °/min
Orbital period
98.36 mins
BSTAR
0.00028064
Loading maneuver chart data...
Computing Atmospheric mass density...
Loading historical data...
Loading historical data...
Loading historical data...
Loading historical data...
Loading historical data...
Loading historical data...
Loading historical data...

Documentation

Showing up to 5 results
|